VK4NB-13 Weather Reports


time (UTC)temp
C
wind
direction
speed
KPH
gust
KPH
rain 1hr
cm
rain 24hr
cm
rain mn
cm
humidity
%
barometer
mb
20260506014021 26 112 0.0 3.2 0.00 0.15 0.03 80 1015.6
20260506013500 25 112 0.0 3.2 0.00 0.15 0.03 81 1015.4
20260506013023 26 99 0.0 3.2 0.00 0.15 0.03 78 1015.5
20260506012501 26 84 0.0 3.2 0.00 0.15 0.03 80 1015.8
20260506012022 25 78 0.0 3.2 0.00 0.15 0.03 82 1015.6
20260506011501 26 67 0.0 3.2 0.00 0.15 0.03 80 1015.5
20260506011021 26 0 0.0 0.0 0.00 0.15 0.03 78 1015.7
20260506010521 25 0 0.0 0.0 0.00 0.15 0.03 82 1015.8
20260506010001 25 134 0.0 3.2 0.00 0.15 0.03 82 1015.9
20260506005500 25 144 0.0 3.2 0.00 0.15 0.03 81 1016.1
20260506005000 26 130 0.0 3.2 0.00 0.15 0.03 80 1016.0
20260506004501 25 90 0.0 3.2 0.00 0.15 0.03 82 1016.1
20260506004000 25 157 0.0 3.2 0.00 0.15 0.03 82 1016.1
20260506003522 25 157 0.0 3.2 0.00 0.15 0.03 81 1016.4
20260506003001 25 0 0.0 0.0 0.00 0.15 0.03 82 1016.3
20260506002500 25 0 0.0 0.0 0.00 0.15 0.03 83 1016.4
20260506002000 25 78 0.0 3.2 0.00 0.15 0.03 82 1016.3
20260506001522 25 78 0.0 3.2 0.00 0.15 0.03 82 1016.3
20260506001000 25 135 0.0 3.2 0.00 0.15 0.03 82 1016.4
20260506000501 25 135 0.0 3.2 0.00 0.15 0.03 82 1016.4
20260506000000 25 0 0.0 0.0 0.00 0.15 0.03 82 1016.4
20260505235501 25 0 0.0 0.0 0.00 0.15 0.03 82 1016.2
20260505235001 25 0 0.0 0.0 0.00 0.15 0.03 81 1016.3
20260505234501 25 0 0.0 0.0 0.00 0.15 0.03 81 1016.3
20260505234022 25 0 0.0 0.0 0.00 0.15 0.03 82 1016.5
20260505233500 25 0 0.0 0.0 0.00 0.15 0.03 83 1016.5
20260505233023 24 0 0.0 0.0 0.00 0.15 0.03 82 1016.5
20260505232501 25 0 0.0 0.0 0.00 0.15 0.03 83 1016.3
20260505232001 25 0 0.0 0.0 0.00 0.15 0.03 84 1016.3
20260505231522 23 0 0.0 0.0 0.00 0.15 0.03 85 1016.3
20260505231001 24 0 0.0 0.0 0.00 0.15 0.03 85 1016.4
20260505230522 24 0 0.0 0.0 0.00 0.15 0.03 85 1016.2
20260505230001 23 0 0.0 0.0 0.00 0.15 0.03 84 1016.1
20260505225501 23 0 0.0 0.0 0.00 0.15 0.03 86 1016.4
20260505225001 23 0 0.0 0.0 0.00 0.15 0.03 87 1016.1
20260505224501 23 0 0.0 0.0 0.00 0.15 0.03 86 1016.0
20260505224001 23 0 0.0 0.0 0.00 0.15 0.03 85 1016.1
20260505223501 23 0 0.0 0.0 0.00 0.15 0.03 86 1016.1
20260505223001 23 0 0.0 0.0 0.00 0.15 0.03 87 1015.8
20260505222501 23 0 0.0 0.0 0.00 0.15 0.03 86 1016.0
20260505222001 23 0 0.0 0.0 0.00 0.15 0.03 88 1016.0
20260505221501 23 0 0.0 0.0 0.00 0.15 0.03 89 1016.0
20260505221001 22 0 0.0 0.0 0.00 0.15 0.03 91 1015.9
20260505220501 22 0 0.0 0.0 0.00 0.15 0.03 91 1016.1
20260505220001 22 0 0.0 0.0 0.00 0.15 0.03 93 1016.0
20260505215501 21 0 0.0 0.0 0.00 0.15 0.03 92 1015.9
20260505215001 21 0 0.0 0.0 0.00 0.15 0.03 94 1016.0
20260505214501 21 0 0.0 0.0 0.00 0.15 0.03 95 1016.0
20260505214002 21 0 0.0 0.0 0.00 0.15 0.03 95 1016.0
20260505213502 21 0 0.0 0.0 0.00 0.15 0.03 95 1015.9
20260505213002 21 0 0.0 0.0 0.00 0.15 0.03 95 1015.9
20260505212501 20 0 0.0 0.0 0.00 0.15 0.03 95 1016.0
20260505212001 20 0 0.0 0.0 0.00 0.15 0.03 96 1015.9
20260505211501 20 0 0.0 0.0 0.00 0.15 0.03 97 1015.9
20260505211022 20 0 0.0 0.0 0.00 0.15 0.03 97 1015.6
20260505210501 20 0 0.0 0.0 0.00 0.15 0.03 97 1015.8
20260505210001 20 0 0.0 0.0 0.00 0.15 0.03 97 1015.5
20260505205522 20 0 0.0 0.0 0.00 0.15 0.03 97 1015.5
20260505205001 20 0 0.0 0.0 0.00 0.15 0.03 97 1015.7
20260505204501 20 0 0.0 0.0 0.00 0.15 0.03 96 1015.4
20260505204001 20 0 0.0 0.0 0.00 0.15 0.03 96 1015.4
20260505203501 20 0 0.0 0.0 0.00 0.15 0.03 96 1015.4
20260505203002 20 0 0.0 0.0 0.00 0.15 0.03 96 1015.2
20260505202522 20 0 0.0 0.0 0.00 0.15 0.03 96 1015.3
20260505202022 20 0 0.0 0.0 0.00 0.15 0.03 97 1015.3
20260505201501 20 0 0.0 0.0 0.00 0.15 0.03 97 1015.2
20260505201001 20 0 0.0 0.0 0.00 0.15 0.03 98 1015.3
20260505200522 20 0 0.0 0.0 0.00 0.15 0.03 98 1015.2
20260505200001 20 0 0.0 0.0 0.00 0.15 0.03 98 1015.0
20260505195501 20 0 0.0 0.0 0.00 0.15 0.03 98 1015.2
20260505195022 20 0 0.0 0.0 0.00 0.15 0.03 98 1015.0
20260505194501 20 0 0.0 0.0 0.00 0.15 0.03 99 1015.1
20260505194023 20 0 0.0 0.0 0.00 0.15 0.03 99 1015.1
20260505193502 19 0 0.0 0.0 0.00 0.15 0.03 99 1015.0
20260505193002 19 0 0.0 0.0 0.00 0.15 0.03 99 1014.8
20260505192522 20 0 0.0 0.0 0.00 0.15 0.03 99 1014.7
20260505192001 19 0 0.0 0.0 0.00 0.15 0.03 99 1014.7
20260505191501 19 0 0.0 0.0 0.00 0.15 0.03 99 1014.8
20260505191001 19 0 0.0 0.0 0.00 0.15 0.03 99 1014.6
20260505190501 19 0 0.0 0.0 0.00 0.15 0.03 99 1014.5
20260505190001 19 0 0.0 0.0 0.00 0.15 0.03 99 1014.5
20260505185501 19 0 0.0 0.0 0.00 0.15 0.03 99 1014.4
20260505185001 19 0 0.0 0.0 0.00 0.15 0.03 99 1014.3
20260505184501 19 0 0.0 0.0 0.00 0.15 0.03 99 1014.5
20260505184001 19 0 0.0 0.0 0.00 0.15 0.03 99 1014.4
20260505183523 20 0 0.0 0.0 0.00 0.15 0.03 99 1014.6
20260505183002 20 0 0.0 0.0 0.00 0.15 0.03 99 1014.6
20260505182523 20 0 0.0 0.0 0.00 0.15 0.03 99 1014.5
20260505182022 20 0 0.0 0.0 0.00 0.15 0.03 99 1014.6
20260505181501 20 0 0.0 0.0 0.00 0.15 0.03 99 1014.3
20260505181001 20 0 0.0 0.0 0.00 0.15 0.03 99 1014.5
20260505180501 20 0 0.0 0.0 0.00 0.15 0.03 99 1014.2
20260505180022 20 0 0.0 0.0 0.00 0.15 0.03 99 1014.4
20260505175501 20 0 0.0 0.0 0.00 0.15 0.03 99 1014.3
20260505175001 20 0 0.0 0.0 0.00 0.15 0.03 99 1014.3
20260505174501 20 0 0.0 0.0 0.00 0.15 0.03 99 1014.3
20260505174022 20 0 0.0 0.0 0.00 0.15 0.03 99 1014.4
20260505173501 20 0 0.0 0.0 0.00 0.15 0.03 99 1014.7
20260505173002 20 0 0.0 0.0 0.00 0.15 0.03 99 1014.7
20260505172522 20 0 0.0 0.0 0.00 0.15 0.03 99 1014.7
20260505172001 20 0 0.0 0.0 0.00 0.15 0.03 99 1014.7
20260505171501 20 0 0.0 0.0 0.00 0.15 0.03 99 1014.7
20260505171001 20 0 0.0 0.0 0.00 0.15 0.03 99 1014.7
20260505170502 19 0 0.0 0.0 0.03 0.15 0.03 99 1014.8
20260505170002 19 0 0.0 0.0 0.03 0.15 0.03 99 1014.7
20260505165502 19 0 0.0 0.0 0.03 0.18 0.03 99 1014.8
20260505165002 19 0 0.0 0.0 0.03 0.18 0.03 99 1014.8
20260505164501 19 0 0.0 0.0 0.03 0.18 0.03 99 1014.7
20260505164023 19 0 0.0 0.0 0.03 0.18 0.03 99 1014.7
20260505163502 19 0 0.0 0.0 0.03 0.18 0.03 99 1014.8
20260505163002 18 0 0.0 0.0 0.03 0.18 0.03 99 1014.8
20260505162523 18 0 0.0 0.0 0.03 0.18 0.03 99 1014.7
20260505162023 19 0 0.0 0.0 0.03 0.18 0.03 99 1014.8
20260505161502 20 0 0.0 0.0 0.03 0.18 0.03 99 1015.0
20260505161001 20 0 0.0 0.0 0.03 0.18 0.03 99 1014.9
20260505160501 20 0 0.0 0.0 0.00 0.15 0.00 99 1015.0
20260505153003 20 0 0.0 0.0 0.00 0.15 0.00 99 1015.2
20260505152502 20 0 0.0 0.0 0.00 0.15 0.00 99 1015.5
20260505152002 20 0 0.0 0.0 0.00 0.15 0.00 99 1015.4
20260505151502 20 0 0.0 0.0 0.00 0.15 0.00 99 1015.6
20260505151002 20 0 0.0 0.0 0.00 0.15 0.00 99 1015.5
20260505150502 20 0 0.0 0.0 0.00 0.15 0.00 99 1015.6
20260505140523 20 0 0.0 0.0 0.00 0.15 0.00 98 1015.7
20260505125002 21 0 0.0 0.0 0.00 0.15 0.15 97 1016.6
20260505124503 21 0 0.0 0.0 0.00 0.15 0.15 97 1016.7
20260505124002 21 0 0.0 0.0 0.00 0.15 0.15 97 1016.5
20260505123502 21 0 0.0 0.0 0.00 0.15 0.15 97 1016.5
20260505123024 21 0 0.0 0.0 0.00 0.15 0.15 96 1016.7
20260505122523 21 0 0.0 0.0 0.00 0.15 0.15 96 1016.6
20260505122002 21 0 0.0 0.0 0.00 0.15 0.15 96 1016.4
20260505121502 21 0 0.0 0.0 0.00 0.15 0.15 95 1016.5
20260505121023 21 0 0.0 0.0 0.00 0.15 0.15 96 1016.6
20260505120502 21 0 0.0 0.0 0.00 0.15 0.15 96 1016.6
20260505120023 21 0 0.0 0.0 0.00 0.15 0.15 95 1016.4
20260505115502 21 0 0.0 0.0 0.00 0.15 0.15 95 1016.6
20260505115002 21 0 0.0 0.0 0.00 0.15 0.15 96 1016.7
20260505114502 21 0 0.0 0.0 0.00 0.15 0.15 95 1016.7
20260505114023 22 0 0.0 0.0 0.00 0.15 0.15 94 1016.6
20260505113502 22 0 0.0 0.0 0.00 0.15 0.15 94 1016.5
20260505113003 22 0 0.0 0.0 0.00 0.15 0.15 94 1016.5
20260505112502 22 0 0.0 0.0 0.00 0.15 0.15 94 1016.7
20260505112023 22 0 0.0 0.0 0.00 0.15 0.15 94 1016.7
20260505111523 22 0 0.0 0.0 0.00 0.15 0.15 94 1016.7
20260505111002 22 0 0.0 0.0 0.00 0.15 0.15 93 1016.8
20260505110502 22 0 0.0 0.0 0.00 0.15 0.15 93 1016.5
20260505102002 22 0 0.0 0.0 0.00 0.15 0.15 92 1016.8
20260505101503 22 0 0.0 0.0 0.00 0.15 0.15 91 1016.8
20260505101002 22 0 0.0 0.0 0.00 0.15 0.15 91 1016.5
20260505100502 22 0 0.0 0.0 0.00 0.15 0.15 91 1016.5
20260505100002 22 0 0.0 0.0 0.00 0.15 0.15 90 1016.3
20260505095502 22 0 0.0 0.0 0.00 0.15 0.15 90 1016.3
20260505095002 22 0 0.0 0.0 0.00 0.15 0.15 89 1016.4
20260505094502 22 0 0.0 0.0 0.00 0.15 0.15 89 1016.4
20260505094003 22 0 0.0 0.0 0.00 0.15 0.15 89 1016.3
20260505093503 22 0 0.0 0.0 0.00 0.15 0.15 88 1016.3
20260505093003 22 0 0.0 0.0 0.00 0.15 0.15 88 1016.2
20260505092502 22 0 0.0 0.0 0.00 0.15 0.15 88 1016.1
20260505092002 22 0 0.0 0.0 0.00 0.15 0.15 88 1016.1
20260505091502 22 0 0.0 0.0 0.00 0.20 0.15 88 1016.1
20260505091002 22 0 0.0 0.0 0.00 0.23 0.15 88 1016.1
20260505090502 22 0 0.0 0.0 0.00 0.30 0.15 88 1015.8
20260505090002 22 0 0.0 0.0 0.05 0.33 0.15 87 1015.8
20260505085523 22 0 0.0 0.0 0.10 0.33 0.15 87 1015.9
20260505085003 22 0 0.0 0.0 0.13 0.33 0.15 87 1015.5
20260505084502 22 0 0.0 0.0 0.13 0.36 0.15 86 1015.8
20260505084003 22 0 0.0 0.0 0.13 0.43 0.15 86 1015.7
20260505083503 23 0 0.0 0.0 0.13 0.43 0.15 85 1015.4
20260505083003 23 0 0.0 0.0 0.13 0.46 0.15 85 1015.6
20260505082503 23 0 0.0 0.0 0.13 0.46 0.15 84 1015.4
20260505082003 23 0 0.0 0.0 0.13 0.46 0.15 82 1015.4
20260505081502 23 0 0.0 0.0 0.13 0.46 0.15 81 1015.3
20260505081003 23 0 0.0 0.0 0.13 0.46 0.15 81 1015.4
20260505080523 23 0 0.0 0.0 0.13 0.46 0.15 80 1015.2
20260505080003 23 0 0.0 0.0 0.05 0.46 0.10 81 1015.2
20260505075503 23 0 0.0 0.0 0.03 0.46 0.05 80 1015.3
20260505075003 23 0 0.0 0.0 0.00 0.46 0.03 81 1014.9
20260505074524 23 0 0.0 0.0 0.00 0.46 0.03 83 1014.8
20260505074003 23 0 0.0 0.0 0.00 0.46 0.03 80 1014.8
20260505073502 24 0 0.0 0.0 0.00 0.46 0.03 77 1014.8
20260505073003 24 0 0.0 0.0 0.00 0.46 0.03 76 1014.6
20260505072503 24 0 0.0 0.0 0.00 0.46 0.03 76 1014.6
20260505072002 24 0 0.0 0.0 0.00 0.46 0.03 75 1014.5
20260505071503 24 0 0.0 0.0 0.00 0.46 0.03 75 1014.5
20260505071003 24 0 0.0 0.0 0.00 0.46 0.03 76 1014.6
20260505070503 24 0 0.0 0.0 0.00 0.46 0.03 73 1014.4
20260505070024 25 0 0.0 0.0 0.00 0.46 0.03 73 1014.5
20260505065503 24 0 0.0 0.0 0.00 0.46 0.03 73 1014.4
20260505065003 25 0 0.0 0.0 0.00 0.46 0.03 71 1014.1
20260505064503 25 0 0.0 0.0 0.00 0.46 0.03 70 1014.3
20260505064003 26 0 0.0 0.0 0.00 0.46 0.03 64 1014.3
20260505063525 26 0 0.0 0.0 0.00 0.46 0.03 64 1014.4
20260505063024 26 0 0.0 0.0 0.00 0.46 0.03 64 1014.2
20260505062524 26 0 0.0 0.0 0.00 0.46 0.03 64 1014.2
20260505062003 27 0 0.0 0.0 0.00 0.46 0.03 63 1014.2
20260505061503 27 0 0.0 0.0 0.00 0.46 0.03 63 1014.1
20260505061003 27 67 0.0 3.2 0.00 0.46 0.03 62 1014.1
20260505060503 26 67 0.0 3.2 0.00 0.46 0.03 62 1014.1
20260505060003 26 0 0.0 0.0 0.00 0.46 0.03 63 1013.9
20260505055503 26 112 0.0 3.2 0.00 0.46 0.03 64 1014.0
20260505055003 26 112 0.0 3.2 0.00 0.46 0.03 63 1014.1
20260505054503 26 112 0.0 3.2 0.00 0.46 0.03 64 1014.1
20260505054003 26 0 0.0 0.0 0.00 0.46 0.03 65 1013.9
20260505053504 26 0 0.0 0.0 0.00 0.46 0.03 65 1014.0
20260505053003 26 90 0.0 3.2 0.00 0.46 0.03 64 1013.8
20260505052503 27 90 0.0 3.2 0.00 0.46 0.03 64 1013.9
20260505052003 27 77 0.0 3.2 0.00 0.46 0.03 62 1013.7
20260505051524 27 80 0.0 3.2 0.00 0.46 0.03 62 1013.8
20260505051024 27 90 0.0 3.2 0.00 0.46 0.03 60 1013.8
20260505050503 27 90 0.0 3.2 0.00 0.46 0.03 63 1013.8
20260505041503 27 0 0.0 0.0 0.00 0.46 0.03 62 1014.0
20260505041003 28 0 0.0 0.0 0.00 0.46 0.03 64 1014.1
20260505040503 27 0 0.0 0.0 0.00 0.46 0.03 63 1013.8
20260505040003 27 0 0.0 0.0 0.00 0.46 0.03 62 1013.9
20260505035503 28 0 0.0 0.0 0.00 0.46 0.03 62 1014.1
20260505035003 27 0 0.0 0.0 0.00 0.46 0.03 63 1013.8
20260505034503 28 0 0.0 0.0 0.00 0.46 0.03 62 1014.0
20260505034003 28 0 0.0 0.0 0.00 0.46 0.03 60 1014.0
20260505033504 28 0 0.0 0.0 0.00 0.46 0.03 58 1013.9
20260505033003 29 0 0.0 0.0 0.00 0.46 0.03 56 1013.9
20260505032524 28 168 0.0 3.2 0.00 0.46 0.03 58 1014.0
20260505032003 28 168 0.0 3.2 0.00 0.46 0.03 59 1014.0
20260505031503 28 0 0.0 0.0 0.00 0.46 0.03 61 1014.1
20260505031003 27 135 0.0 3.2 0.00 0.46 0.03 59 1014.2
20260505030503 28 135 0.0 3.2 0.00 0.46 0.03 59 1014.4
20260505030024 28 0 0.0 0.0 0.00 0.46 0.03 63 1014.5
20260505025503 27 0 0.0 0.0 0.00 0.46 0.03 62 1014.5
20260505025024 27 0 0.0 0.0 0.00 0.46 0.03 64 1014.6
20260505024503 27 0 0.0 0.0 0.00 0.46 0.03 64 1014.8
20260505024003 27 0 0.0 0.0 0.00 0.46 0.03 66 1014.6
20260505023504 28 0 0.0 0.0 0.00 0.46 0.03 63 1014.8
20260505023003 27 0 0.0 0.0 0.00 0.46 0.03 67 1015.0
20260505022503 27 90 0.0 3.2 0.00 0.46 0.03 68 1015.0
20260505022003 28 90 0.0 3.2 0.00 0.46 0.03 69 1014.9
20260505021524 27 0 0.0 0.0 0.00 0.46 0.03 69 1015.0
20260505021003 27 0 0.0 0.0 0.00 0.46 0.03 67 1015.3
20260505020524 27 0 0.0 0.0 0.00 0.46 0.03 69 1015.3
20260505020003 26 0 0.0 0.0 0.00 0.46 0.03 69 1015.3
20260505015503 26 0 0.0 0.0 0.00 0.46 0.03 69 1015.4
20260505015003 26 0 0.0 0.0 0.00 0.46 0.03 71 1015.2
20260505014524 26 0 0.0 0.0 0.00 0.46 0.03 69 1015.5